QPF
0.01 0.01 0.01 0.00 0.00 0.00 0.00 0.00 0.00 0.00 0.00 0.00 0.00 0.00 0.00 0.00 0.00 0.00 0.00 0.00 0.00 0.00 0.00 0.00 0.00 0.00 0.00 0.00 0.00 0.00 0.01 0.01 0.01 0.01 0.00 0.00 0.00 0.00 0.00 0.00 0.00 0.00 0.00
0.01 0.01 0.01 0.01 0.00 0.00 0.00 0.00 0.00 0.00 0.00 0.00 0.00 0.00 0.00 0.00 0.00 0.00 0.00 0.01 0.01 0.00 0.00 0.00 0.00 0.00 0.00 0.00 0.00 0.00 0.01 0.01 0.01 0.01 0.01 0.01 0.01 0.01 0.00 0.00 0.00 0.00 0.00
0.01 0.01 0.02 0.02 0.01 0.00 0.00 0.00 0.00 0.00 0.00 0.00 0.00 0.00 0.00 0.00 0.00 0.00 0.00 0.00 0.01 0.01 0.00 0.00 0.00 0.00 0.00 0.00 0.00 0.00 0.00 0.01 0.01 0.01 0.01 0.01 0.02 0.02 0.01 0.01 0.01 0.01 0.01
0.00 0.01 0.01 0.02 0.01 0.00 0.00 0.00 0.00 0.00 0.01 0.00 0.00 0.00 0.00 0.00 0.00 0.00 0.00 0.00 0.00 0.01 0.01 0.01 0.01 0.01 0.01 0.00 0.01 0.01 0.01 0.00 0.01 0.01 0.02 0.02 0.02 0.02 0.03 0.03 0.02 0.02 0.01
0.00 0.00 0.01 0.01 0.01 0.00 0.00 0.00 0.01 0.01 0.02 0.01 0.00 0.00 0.00 0.00 0.00 0.00 0.00 0.00 0.00 0.00 0.01 0.01 0.01 0.01 0.01 0.01 0.01 0.01 0.01 0.01 0.01 0.01 0.01 0.02 0.03 0.04 0.04 0.04 0.04 0.04 0.03
0.00 0.00 0.00 0.00 0.00 0.00 0.00 0.01 0.00 0.00 0.00 0.00 0.00 0.00 0.00 0.00 0.00 0.00 0.00 0.00 0.00 0.00 0.00 0.01 0.01 0.01 0.02 0.01 0.01 0.01 0.01 0.00 0.00 0.00 0.01 0.02 0.03 0.03 0.04 0.04 0.05 0.05 0.05
0.00 0.00 0.00 0.00 0.00 0.00 0.00 0.00 0.00 0.00 0.00 0.00 0.00 0.00 0.00 0.00 0.00 0.00 0.00 0.00 0.00 0.00 0.00 0.00 0.00 0.00 0.01 0.01 0.01 0.01 0.01 0.01 0.01 0.01 0.01 0.01 0.01 0.01 0.02 0.03 0.05 0.06 0.06
0.00 0.00 0.00 0.00 0.00 0.00 0.00 0.00 0.00 0.00 0.00 0.00 0.00 0.00 0.00 0.00 0.00 0.00 0.00 0.00 0.00 0.00 0.00 0.00 0.00 0.00 0.00 0.00 0.00 0.00 0.00 0.00 0.00 0.00 0.01 0.01 0.01 0.01 0.01 0.02 0.03 0.04 0.06
0.00 0.00 0.00 0.00 0.00 0.00 0.00 0.00 0.00 0.00 0.00 0.00 0.00 0.00 0.00 0.00 0.00 0.00 0.00 0.00 0.00 0.00 0.00 0.00 0.00 0.00 0.00 0.00 0.00 0.00 0.00 0.00 0.00 0.00 0.00 0.00 0.01 0.01 0.01 0.02 0.02 0.03 0.05
0.00 0.00 0.00 0.00 0.00 0.00 0.00 0.00 0.00 0.00 0.00 0.00 0.00 0.00 0.00 0.00 0.00 0.00 0.00 0.00 0.00 0.00 0.00 0.00 0.00 0.00 0.00 0.00 0.00 0.00 0.00 0.00 0.00 0.00 0.00 0.00 0.00 0.01 0.01 0.02 0.02 0.03 0.04
0.00 0.00 0.00 0.00 0.00 0.00 0.00 0.00 0.00 0.00 0.00 0.00 0.00 0.00 0.00 0.00 0.00 0.00 0.00 0.00 0.00 0.00 0.00 0.00 0.00 0.00 0.00 0.00 0.00 0.00 0.00 0.00 0.00 0.00 0.00 0.00 0.00 0.01 0.01 0.02 0.02 0.03 0.03
0.00 0.00 0.00 0.00 0.00 0.00 0.00 0.00 0.00 0.00 0.00 0.00 0.00 0.00 0.00 0.00 0.00 0.00 0.00 0.00 0.00 0.00 0.00 0.00 0.00 0.00 0.00 0.00 0.00 0.00 0.00 0.00 0.00 0.00 0.00 0.00 0.00 0.00 0.01 0.02 0.02 0.03 0.04
0.00 0.00 0.00 0.00 0.00 0.00 0.00 0.00 0.00 0.00 0.00 0.00 0.00 0.00 0.00 0.00 0.00 0.00 0.00 0.00 0.00 0.00 0.00 0.00 0.00 0.00 0.00 0.00 0.00 0.00 0.00 0.00 0.00 0.00 0.00 0.00 0.00 0.00 0.00 0.00 0.01 0.01 0.02
0.00 0.00 0.00 0.00 0.00 0.00 0.00 0.00 0.00 0.00 0.00 0.01 0.01 0.01 0.01 0.00 0.00 0.00 0.00 0.00 0.00 0.00 0.00 0.00 0.00 0.00 0.00 0.00 0.00 0.00 0.00 0.01 0.01 0.01 0.00 0.00 0.00 0.00 0.00 0.00 0.00 0.00 0.01
0.00 0.00 0.00 0.00 0.00 0.00 0.00 0.00 0.01 0.01 0.01 0.01 0.01 0.02 0.02 0.01 0.01 0.01 0.01 0.01 0.01 0.01 0.00 0.00 0.00 0.00 0.00 0.00 0.00 0.00 0.01 0.01 0.02 0.02 0.01 0.01 0.00 0.00 0.00 0.00 0.00 0.00 0.00
0.00 0.00 0.00 0.00 0.00 0.00 0.00 0.01 0.01 0.01 0.01 0.02 0.02 0.02 0.03 0.02 0.03 0.02 0.02 0.02 0.01 0.02 0.01 0.00 0.00 0.00 0.00 0.00 0.00 0.01 0.01 0.01 0.02 0.01 0.01 0.01 0.00 0.00 0.00 0.00 0.00 0.00 0.00
0.00 0.00 0.00 0.00 0.00 0.00 0.00 0.01 0.01 0.01 0.02 0.02 0.02 0.03 0.03 0.04 0.04 0.03 0.03 0.02 0.01 0.01 0.02 0.01 0.00 0.00 0.01 0.01 0.02 0.03 0.03 0.03 0.03 0.03 0.03 0.02 0.01 0.01 0.00 0.00 0.00 0.00 0.00
0.00 0.00 0.00 0.00 0.00 0.00 0.01 0.01 0.02 0.02 0.03 0.03 0.03 0.03 0.03 0.03 0.03 0.02 0.02 0.01 0.01 0.01 0.02 0.02 0.01 0.01 0.02 0.03 0.03 0.03 0.02 0.02 0.02 0.02 0.02 0.01 0.01 0.01 0.00 0.00 0.00 0.00 0.00
0.00 0.00 0.00 0.01 0.01 0.01 0.02 0.03 0.03 0.03 0.03 0.03 0.02 0.03 0.02 0.02 0.02 0.01 0.01 0.01 0.01 0.01 0.01 0.02 0.03 0.03 0.03 0.02 0.03 0.03 0.02 0.03 0.02 0.01 0.01 0.01 0.01 0.01 0.01 0.01 0.01 0.00 0.00
0.01 0.01 0.01 0.01 0.02 0.02 0.02 0.02 0.01 0.01 0.01 0.01 0.01 0.01 0.01 0.01 0.01 0.02 0.02 0.01 0.02 0.02 0.03 0.04 0.04 0.03 0.03 0.02 0.04 0.04 0.03 0.04 0.05 0.03 0.03 0.03 0.03 0.02 0.01 0.01 0.01 0.01 0.00
0.02 0.02 0.02 0.01 0.01 0.01 0.01 0.00 0.00 0.00 0.00 0.00 0.01 0.01 0.01 0.01 0.01 0.02 0.01 0.02 0.03 0.04 0.04 0.05 0.05 0.04 0.03 0.03 0.04 0.05 0.05 0.03 0.03 0.03 0.04 0.04 0.05 0.04 0.04 0.03 0.02 0.01 0.01
0.02 0.01 0.01 0.00 0.00 0.00 0.00 0.00 0.00 0.00 0.00 0.01 0.01 0.01 0.01 0.01 0.01 0.01 0.02 0.03 0.04 0.05 0.05 0.05 0.05 0.04 0.03 0.03 0.05 0.05 0.04 0.04 0.03 0.03 0.04 0.04 0.04 0.05 0.06 0.06 0.04 0.02 0.01
0.01 0.00 0.00 0.00 0.01 0.01 0.00 0.00 0.00 0.00 0.01 0.02 0.02 0.02 0.02 0.01 0.02 0.04 0.05 0.04 0.04 0.03 0.04 0.05 0.05 0.03 0.03 0.04 0.06 0.06 0.07 0.07 0.06 0.05 0.06 0.05 0.05 0.05 0.04 0.04 0.03 0.02 0.01
0.00 0.01 0.01 0.00 0.01 0.01 0.00 0.00 0.00 0.00 0.01 0.02 0.02 0.03 0.04 0.04 0.04 0.04 0.03 0.02 0.02 0.02 0.03 0.04 0.04 0.04 0.04 0.06 0.09 0.09 0.09 0.09 0.07 0.05 0.07 0.06 0.04 0.05 0.04 0.03 0.03 0.01 0.01
0.00 0.01 0.00 0.00 0.01 0.01 0.00 0.00 0.00 0.00 0.01 0.01 0.01 0.02 0.03 0.03 0.03 0.02 0.02 0.03 0.02 0.02 0.02 0.03 0.04 0.06 0.08 0.10 0.10 0.10 0.11 0.11 0.09 0.07 0.07 0.07 0.04 0.04 0.03 0.02 0.02 0.02 0.01
0.00 0.00 0.00 0.01 0.01 0.02 0.01 0.00 0.00 0.00 0.01 0.01 0.01 0.01 0.02 0.02 0.02 0.02 0.02 0.03 0.03 0.02 0.03 0.04 0.06 0.09 0.10 0.12 0.12 0.11 0.11 0.11 0.11 0.11 0.08 0.08 0.06 0.05 0.04 0.02 0.02 0.01 0.01
MSLP
1015.72 1015.84 1015.87 1015.83 1015.77 1015.74 1015.75 1015.80 1015.89 1015.98 1016.04 1016.06 1016.03 1015.96 1015.88 1015.83 1015.83 1015.92 1016.09 1016.34 1016.64 1016.96 1017.27 1017.54 1017.75 1017.91 1018.03 1018.11 1018.16 1018.21 1018.25 1018.29 1018.32 1018.35 1018.38 1018.41 1018.45 1018.51 1018.61 1018.75 1018.93 1019.14 1019.38
1015.62 1015.80 1015.88 1015.88 1015.86 1015.83 1015.84 1015.88 1015.97 1016.07 1016.16 1016.22 1016.23 1016.21 1016.16 1016.11 1016.07 1016.10 1016.18 1016.33 1016.53 1016.78 1017.04 1017.30 1017.53 1017.73 1017.89 1018.01 1018.09 1018.14 1018.16 1018.17 1018.15 1018.13 1018.11 1018.11 1018.13 1018.18 1018.27 1018.40 1018.57 1018.78 1019.01
1015.59 1015.84 1015.99 1016.07 1016.10 1016.11 1016.14 1016.19 1016.27 1016.37 1016.46 1016.54 1016.57 1016.55 1016.50 1016.42 1016.33 1016.27 1016.25 1016.29 1016.40 1016.56 1016.77 1017.00 1017.25 1017.48 1017.68 1017.84 1017.95 1018.02 1018.03 1018.01 1017.96 1017.90 1017.85 1017.82 1017.81 1017.85 1017.93 1018.05 1018.21 1018.40 1018.61
1015.62 1015.94 1016.18 1016.34 1016.45 1016.53 1016.59 1016.65 1016.73 1016.81 1016.88 1016.94 1016.95 1016.92 1016.83 1016.71 1016.55 1016.41 1016.29 1016.23 1016.23 1016.31 1016.47 1016.68 1016.92 1017.17 1017.40 1017.60 1017.73 1017.81 1017.82 1017.79 1017.73 1017.65 1017.58 1017.53 1017.51 1017.54 1017.60 1017.71 1017.84 1018.01 1018.19
1015.69 1016.07 1016.39 1016.65 1016.85 1016.99 1017.09 1017.17 1017.23 1017.29 1017.33 1017.34 1017.31 1017.24 1017.11 1016.93 1016.71 1016.49 1016.29 1016.14 1016.06 1016.07 1016.17 1016.35 1016.58 1016.83 1017.07 1017.28 1017.43 1017.51 1017.54 1017.51 1017.45 1017.37 1017.30 1017.25 1017.24 1017.26 1017.31 1017.39 1017.49 1017.61 1017.75
1015.78 1016.20 1016.60 1016.95 1017.23 1017.44 1017.58 1017.67 1017.72 1017.73 1017.72 1017.68 1017.60 1017.48 1017.31 1017.09 1016.83 1016.56 1016.30 1016.09 1015.95 1015.89 1015.94 1016.06 1016.26 1016.48 1016.71 1016.91 1017.06 1017.15 1017.19 1017.17 1017.13 1017.07 1017.02 1016.99 1016.99 1017.00 1017.04 1017.09 1017.15 1017.22 1017.30
1015.87 1016.33 1016.78 1017.20 1017.55 1017.82 1018.00 1018.09 1018.12 1018.10 1018.04 1017.95 1017.83 1017.67 1017.47 1017.23 1016.95 1016.66 1016.38 1016.13 1015.94 1015.84 1015.82 1015.88 1016.02 1016.19 1016.38 1016.54 1016.67 1016.75 1016.79 1016.79 1016.78 1016.76 1016.75 1016.75 1016.76 1016.78 1016.80 1016.81 1016.81 1016.82 1016.84
1015.98 1016.45 1016.95 1017.41 1017.82 1018.13 1018.33 1018.43 1018.44 1018.39 1018.29 1018.16 1018.00 1017.83 1017.63 1017.40 1017.14 1016.86 1016.58 1016.31 1016.10 1015.94 1015.86 1015.85 1015.89 1015.98 1016.09 1016.19 1016.28 1016.33 1016.37 1016.39 1016.41 1016.43 1016.46 1016.50 1016.53 1016.56 1016.56 1016.53 1016.49 1016.43 1016.38
1016.10 1016.58 1017.10 1017.60 1018.03 1018.36 1018.58 1018.67 1018.67 1018.60 1018.48 1018.33 1018.18 1018.02 1017.84 1017.65 1017.43 1017.18 1016.92 1016.66 1016.42 1016.22 1016.06 1015.95 1015.90 1015.87 1015.88 1015.89 1015.90 1015.92 1015.94 1015.96 1016.01 1016.07 1016.14 1016.22 1016.28 1016.31 1016.30 1016.25 1016.15 1016.04 1015.93
1016.26 1016.75 1017.27 1017.77 1018.21 1018.54 1018.75 1018.85 1018.84 1018.75 1018.63 1018.50 1018.36 1018.23 1018.11 1017.97 1017.80 1017.61 1017.38 1017.13 1016.87 1016.61 1016.38 1016.17 1015.99 1015.84 1015.72 1015.63 1015.56 1015.51 1015.50 1015.51 1015.57 1015.66 1015.77 1015.88 1015.96 1016.01 1015.99 1015.92 1015.80 1015.64 1015.49
1016.47 1016.94 1017.45 1017.93 1018.35 1018.67 1018.87 1018.95 1018.93 1018.86 1018.75 1018.63 1018.54 1018.46 1018.39 1018.31 1018.21 1018.07 1017.88 1017.64 1017.36 1017.05 1016.74 1016.43 1016.13 1015.85 1015.61 1015.40 1015.23 1015.11 1015.05 1015.04 1015.09 1015.19 1015.32 1015.45 1015.55 1015.61 1015.61 1015.54 1015.41 1015.24 1015.07
1016.70 1017.16 1017.63 1018.08 1018.46 1018.74 1018.91 1018.97 1018.95 1018.88 1018.79 1018.71 1018.66 1018.63 1018.62 1018.61 1018.56 1018.47 1018.30 1018.07 1017.78 1017.44 1017.06 1016.66 1016.25 1015.87 1015.51 1015.19 1014.93 1014.73 1014.60 1014.55 1014.58 1014.66 1014.78 1014.92 1015.03 1015.11 1015.12 1015.07 1014.96 1014.82 1014.66
1016.95 1017.37 1017.79 1018.18 1018.50 1018.73 1018.85 1018.89 1018.86 1018.79 1018.73 1018.68 1018.67 1018.69 1018.73 1018.76 1018.76 1018.70 1018.57 1018.35 1018.05 1017.68 1017.26 1016.80 1016.33 1015.86 1015.41 1015.00 1014.65 1014.37 1014.17 1014.05 1014.03 1014.07 1014.17 1014.29 1014.40 1014.49 1014.53 1014.51 1014.44 1014.34 1014.23
1017.18 1017.55 1017.91 1018.22 1018.46 1018.63 1018.70 1018.71 1018.67 1018.60 1018.55 1018.52 1018.54 1018.59 1018.66 1018.72 1018.75 1018.71 1018.60 1018.40 1018.11 1017.75 1017.32 1016.84 1016.33 1015.81 1015.31 1014.83 1014.41 1014.05 1013.77 1013.58 1013.48 1013.45 1013.49 1013.57 1013.67 1013.76 1013.82 1013.85 1013.84 1013.80 1013.75
1017.36 1017.67 1017.95 1018.19 1018.35 1018.45 1018.48 1018.45 1018.39 1018.32 1018.27 1018.26 1018.28 1018.34 1018.41 1018.48 1018.52 1018.50 1018.40 1018.23 1017.97 1017.63 1017.22 1016.76 1016.26 1015.74 1015.21 1014.70 1014.22 1013.79 1013.43 1013.14 1012.94 1012.83 1012.79 1012.81 1012.87 1012.94 1013.02 1013.09 1013.14 1013.18 1013.19
1017.50 1017.74 1017.95 1018.11 1018.20 1018.24 1018.23 1018.17 1018.09 1018.01 1017.95 1017.93 1017.94 1017.98 1018.04 1018.09 1018.12 1018.10 1018.02 1017.87 1017.64 1017.35 1017.00 1016.59 1016.13 1015.63 1015.11 1014.59 1014.07 1013.58 1013.13 1012.75 1012.44 1012.22 1012.08 1012.02 1012.02 1012.07 1012.16 1012.26 1012.36 1012.46 1012.55
1017.60 1017.78 1017.93 1018.02 1018.07 1018.07 1018.02 1017.94 1017.85 1017.75 1017.68 1017.63 1017.61 1017.61 1017.62 1017.63 1017.63 1017.59 1017.51 1017.38 1017.20 1016.96 1016.67 1016.33 1015.93 1015.48 1014.99 1014.47 1013.92 1013.38 1012.86 1012.38 1011.97 1011.64 1011.39 1011.24 1011.18 1011.19 1011.26 1011.38 1011.52 1011.68 1011.82
1017.70 1017.83 1017.93 1017.99 1018.01 1017.99 1017.93 1017.85 1017.74 1017.63 1017.53 1017.44 1017.36 1017.30 1017.24 1017.19 1017.13 1017.05 1016.95 1016.83 1016.68 1016.49 1016.26 1015.98 1015.65 1015.25 1014.79 1014.28 1013.72 1013.14 1012.56 1012.00 1011.49 1011.06 1010.72 1010.49 1010.35 1010.32 1010.37 1010.50 1010.66 1010.85 1011.03
1017.81 1017.91 1018.00 1018.05 1018.07 1018.06 1018.00 1017.92 1017.80 1017.67 1017.53 1017.39 1017.24 1017.10 1016.95 1016.81 1016.68 1016.54 1016.40 1016.26 1016.12 1015.95 1015.76 1015.53 1015.24 1014.89 1014.46 1013.96 1013.40 1012.79 1012.17 1011.55 1010.98 1010.48 1010.07 1009.77 1009.58 1009.51 1009.54 1009.66 1009.83 1010.04 1010.25
1017.96 1018.06 1018.15 1018.22 1018.26 1018.26 1018.23 1018.15 1018.03 1017.87 1017.68 1017.47 1017.24 1017.00 1016.75 1016.51 1016.28 1016.06 1015.86 1015.68 1015.51 1015.34 1015.16 1014.95 1014.68 1014.35 1013.93 1013.44 1012.88 1012.27 1011.63 1011.00 1010.40 1009.87 1009.43 1009.09 1008.88 1008.78 1008.79 1008.90 1009.07 1009.28 1009.51
1018.15 1018.27 1018.39 1018.48 1018.55 1018.57 1018.55 1018.47 1018.33 1018.14 1017.90 1017.62 1017.30 1016.95 1016.60 1016.25 1015.91 1015.60 1015.32 1015.07 1014.86 1014.65 1014.45 1014.22 1013.95 1013.61 1013.20 1012.72 1012.17 1011.57 1010.95 1010.33 1009.75 1009.23 1008.80 1008.47 1008.26 1008.15 1008.15 1008.25 1008.41 1008.61 1008.84
1018.39 1018.53 1018.66 1018.78 1018.87 1018.90 1018.88 1018.79 1018.63 1018.40 1018.10 1017.73 1017.32 1016.88 1016.42 1015.96 1015.52 1015.12 1014.75 1014.43 1014.15 1013.89 1013.64 1013.37 1013.07 1012.72 1012.31 1011.83 1011.31 1010.74 1010.16 1009.59 1009.06 1008.59 1008.21 1007.92 1007.73 1007.64 1007.63 1007.71 1007.85 1008.03 1008.24
1018.65 1018.81 1018.95 1019.08 1019.16 1019.19 1019.15 1019.03 1018.82 1018.54 1018.17 1017.73 1017.24 1016.71 1016.16 1015.61 1015.09 1014.60 1014.16 1013.76 1013.41 1013.09 1012.79 1012.47 1012.14 1011.76 1011.34 1010.88 1010.38 1009.86 1009.34 1008.85 1008.40 1008.01 1007.70 1007.47 1007.31 1007.24 1007.23 1007.28 1007.38 1007.53 1007.71
1018.94 1019.09 1019.23 1019.33 1019.39 1019.37 1019.29 1019.11 1018.85 1018.50 1018.07 1017.56 1017.00 1016.41 1015.79 1015.19 1014.60 1014.06 1013.56 1013.11 1012.71 1012.34 1011.99 1011.63 1011.26 1010.87 1010.45 1010.00 1009.53 1009.07 1008.62 1008.21 1007.85 1007.55 1007.31 1007.13 1007.01 1006.94 1006.91 1006.92 1006.97 1007.05 1007.18
1019.25 1019.38 1019.48 1019.53 1019.53 1019.45 1019.29 1019.04 1018.71 1018.30 1017.80 1017.24 1016.64 1016.00 1015.35 1014.71 1014.10 1013.53 1013.01 1012.54 1012.11 1011.72 1011.34 1010.96 1010.58 1010.18 1009.76 1009.33 1008.90 1008.49 1008.11 1007.77 1007.49 1007.26 1007.08 1006.94 1006.83 1006.74 1006.67 1006.61 1006.58 1006.58 1006.62
1019.58 1019.67 1019.71 1019.70 1019.61 1019.44 1019.20 1018.87 1018.47 1017.98 1017.44 1016.84 1016.21 1015.55 1014.90 1014.26 1013.66 1013.10 1012.59 1012.12 1011.70 1011.30 1010.92 1010.55 1010.17 1009.78 1009.37 1008.97 1008.58 1008.22 1007.89 1007.60 1007.37 1007.18 1007.03 1006.89 1006.76 1006.63 1006.49 1006.34 1006.20 1006.09 1006.03
Thickness
5724 5722 5720 5717 5716 5715 5714 5712 5712 5711 5709 5707 5706 5705 5704 5702 5700 5696 5691 5689 5687 5685 5682 5679 5675 5673 5670 5668 5666 5665 5663 5662 5662 5661 5661 5660 5660 5660 5659 5659 5658 5658 5658
5721 5719 5716 5712 5711 5710 5707 5705 5706 5704 5703 5701 5700 5698 5696 5694 5692 5688 5685 5681 5679 5676 5674 5671 5668 5664 5661 5658 5656 5654 5652 5651 5651 5651 5651 5651 5652 5652 5652 5652 5651 5651 5651
5717 5714 5712 5708 5705 5703 5702 5699 5698 5697 5695 5694 5692 5690 5688 5686 5683 5680 5677 5673 5670 5667 5664 5661 5658 5654 5650 5647 5644 5642 5640 5639 5639 5639 5639 5640 5641 5642 5643 5643 5644 5644 5644
5713 5709 5706 5701 5698 5697 5695 5691 5689 5686 5683 5681 5680 5678 5677 5675 5672 5670 5668 5665 5661 5658 5654 5650 5646 5642 5639 5635 5632 5629 5627 5625 5625 5625 5626 5627 5628 5629 5631 5632 5634 5635 5636
5708 5704 5700 5693 5690 5688 5685 5682 5676 5673 5669 5667 5666 5666 5665 5663 5661 5659 5657 5654 5650 5646 5641 5637 5634 5630 5627 5623 5619 5616 5614 5611 5610 5610 5611 5612 5614 5616 5618 5621 5622 5624 5627
5699 5695 5693 5686 5681 5678 5673 5669 5665 5661 5658 5655 5654 5654 5652 5651 5649 5647 5645 5643 5639 5634 5629 5624 5620 5616 5613 5610 5606 5603 5600 5597 5595 5594 5595 5597 5599 5601 5604 5608 5610 5613 5616
5691 5686 5682 5678 5672 5667 5661 5658 5653 5649 5647 5645 5641 5640 5641 5641 5640 5637 5634 5631 5626 5621 5616 5610 5605 5601 5598 5595 5592 5589 5586 5583 5581 5580 5580 5581 5583 5586 5590 5594 5597 5600 5604
5682 5678 5672 5668 5662 5656 5651 5648 5643 5637 5633 5631 5626 5623 5623 5624 5625 5623 5617 5613 5610 5606 5600 5595 5590 5586 5583 5580 5578 5575 5573 5571 5569 5566 5565 5566 5568 5572 5576 5581 5585 5589 5592
5671 5667 5663 5656 5650 5645 5640 5635 5630 5626 5620 5616 5613 5608 5604 5603 5601 5601 5597 5593 5590 5587 5582 5577 5573 5570 5568 5567 5566 5563 5561 5560 5559 5556 5555 5555 5557 5560 5564 5569 5573 5578 5582
5661 5657 5651 5644 5638 5632 5627 5621 5615 5611 5606 5602 5599 5596 5591 5587 5581 5580 5578 5575 5573 5570 5566 5563 5559 5556 5554 5553 5552 5552 5551 5550 5549 5547 5546 5546 5547 5550 5554 5558 5563 5568 5573
5650 5646 5639 5632 5625 5620 5614 5607 5603 5597 5592 5587 5581 5577 5572 5569 5566 5562 5561 5560 5557 5553 5550 5548 5545 5542 5540 5539 5539 5539 5540 5541 5541 5540 5538 5537 5538 5541 5545 5549 5554 5559 5564
5640 5634 5628 5619 5613 5607 5601 5595 5590 5584 5578 5572 5565 5559 5554 5550 5546 5544 5542 5541 5539 5537 5534 5530 5528 5526 5525 5525 5526 5528 5529 5530 5530 5529 5528 5528 5529 5532 5535 5539 5544 5549 5555
5629 5621 5616 5607 5600 5594 5588 5583 5577 5571 5565 5558 5551 5545 5540 5535 5530 5525 5521 5521 5519 5518 5514 5512 5510 5510 5510 5511 5511 5512 5513 5515 5516 5516 5516 5517 5519 5521 5524 5528 5533 5538 5543
5616 5608 5602 5595 5588 5581 5575 5570 5563 5558 5552 5546 5539 5533 5527 5521 5516 5510 5504 5500 5500 5500 5497 5495 5492 5490 5491 5492 5493 5494 5495 5497 5499 5501 5502 5504 5506 5508 5512 5516 5520 5525 5530
5603 5596 5589 5582 5575 5569 5562 5555 5550 5544 5539 5533 5527 5522 5515 5509 5502 5496 5489 5483 5479 5480 5483 5479 5477 5474 5473 5473 5474 5475 5476 5478 5482 5484 5486 5489 5492 5494 5498 5502 5507 5512 5517
5588 5582 5576 5569 5563 5557 5550 5544 5538 5533 5527 5521 5516 5510 5503 5496 5489 5481 5474 5468 5462 5460 5464 5463 5459 5457 5455 5454 5455 5456 5458 5460 5464 5467 5470 5474 5477 5481 5484 5488 5492 5497 5503
5575 5568 5562 5557 5551 5545 5540 5534 5528 5522 5516 5509 5503 5497 5490 5483 5475 5468 5460 5453 5447 5441 5442 5446 5441 5439 5438 5437 5438 5439 5442 5445 5450 5453 5457 5460 5464 5467 5470 5474 5478 5483 5489
5561 5555 5550 5544 5539 5534 5529 5523 5516 5511 5503 5496 5489 5482 5475 5468 5461 5453 5445 5438 5432 5425 5422 5425 5425 5424 5424 5424 5427 5430 5433 5437 5441 5445 5447 5450 5453 5456 5458 5462 5465 5470 5476
5548 5542 5536 5531 5526 5521 5516 5509 5502 5495 5487 5479 5473 5466 5459 5452 5445 5438 5430 5424 5419 5415 5411 5411 5413 5413 5414 5416 5419 5423 5427 5430 5433 5437 5440 5443 5445 5447 5449 5452 5455 5460 5465
5534 5528 5523 5517 5511 5506 5497 5488 5482 5476 5470 5463 5456 5450 5444 5437 5431 5424 5418 5413 5409 5406 5403 5402 5404 5405 5407 5410 5413 5417 5421 5423 5426 5429 5431 5434 5436 5439 5442 5445 5449 5453 5456
5519 5513 5508 5502 5495 5487 5476 5469 5463 5460 5453 5448 5443 5437 5431 5426 5420 5414 5410 5406 5402 5399 5397 5397 5399 5401 5404 5406 5409 5412 5414 5417 5420 5422 5425 5428 5430 5433 5437 5440 5443 5447 5450
5503 5497 5491 5484 5478 5470 5459 5453 5447 5443 5439 5435 5431 5426 5421 5417 5413 5409 5405 5401 5398 5395 5394 5395 5397 5400 5403 5405 5407 5409 5410 5412 5417 5420 5421 5425 5426 5429 5432 5436 5440 5443 5446
5486 5481 5475 5469 5462 5454 5446 5440 5435 5429 5427 5424 5420 5416 5413 5410 5405 5402 5400 5398 5396 5395 5395 5396 5399 5402 5404 5406 5407 5409 5410 5412 5415 5418 5418 5423 5426 5428 5432 5435 5438 5441 5444
5471 5465 5461 5454 5449 5443 5435 5429 5423 5420 5418 5415 5412 5409 5406 5403 5401 5397 5396 5396 5397 5398 5400 5401 5403 5405 5407 5408 5408 5410 5413 5416 5419 5421 5420 5423 5427 5430 5433 5436 5438 5440 5443
5457 5452 5447 5441 5437 5431 5424 5418 5413 5411 5410 5408 5406 5404 5401 5399 5397 5395 5395 5397 5400 5403 5405 5407 5408 5408 5409 5410 5412 5415 5418 5421 5424 5425 5424 5424 5427 5429 5433 5436 5438 5440 5443
5444 5439 5434 5430 5425 5419 5413 5408 5403 5404 5404 5402 5401 5400 5399 5397 5396 5396 5398 5401 5404 5407 5408 5410 5411 5412 5413 5414 5416 5418 5420 5422 5424 5425 5423 5422 5425 5426 5430 5435 5436 5438 5442